Cork, Ireland

11:56 PM IST on May 25, 2017 (GMT +0100)
Cork

Weather History for EICK - November, 2013

Change the Weather History Date:

Saturday, November 16, 2013

  Actual Average Record
Temperature  
Mean Temperature 47 °F -  
Max Temperature 50 °F 48 °F 57 °F (1997)
Min Temperature 44 °F 39 °F 35 °F (1998)
Degree Days  
Heating Degree Days 18    
Moisture  
Dew Point 45 °F    
Average Humidity 90    
Maximum Humidity 100    
Minimum Humidity 83    
Precipitation  
Precipitation 0.00 in 0.16 in - ()
Sea Level Pressure  
Sea Level Pressure 30.48 in    
Wind  
Wind Speed 4 mph ()    
Max Wind Speed 9 mph    
Max Gust Speed -    
Visibility 7.1 miles    
Events      
Averages and records for this station are not official NWS values.
T = Trace of Precipitation, MM = Missing Value Source: Averaged Metar Reports

Daily Weather History Graph

Daily Weather History Graph

Search for Another Location

Airport or City:

Trip Planner

Search our weather history database for the weather conditions in past years. The results will help you decide how hot, cold, wet, or windy it might be!

Date:

Astronomy

Nov. 16, 2013 Rise Set
Actual Time 7:55 AM GMT 4:41 PM GMT
Civil Twilight 7:17 AM GMT 5:19 PM GMT
Nautical Twilight 6:36 AM GMT 6:00 PM GMT
Astronomical Twilight 5:56 AM GMT 6:40 PM GMT
Moon 4:13 PM GMT (11/16) 6:30 AM GMT (11/16)
Length of Visible Light 10h 01m
Length of Day
8h 46m
Waxing Gibbous, 99% of the Moon is Illuminated
Nov 16
Waxing Gibbous
Nov 17
Full
Nov 25
Last Quarter
Dec 3
New
Dec 9
First Quarter

Hourly Weather History & Observations

Time (GMT) Temp. Windchill Dew Point Humidity Pressure Visibility Wind Dir Wind Speed Gust Speed Precip Events Conditions
12:00 AM 45 °F - 42 °F 83% 30.56 in 19 mi West 4.5 mph - -   Scattered Clouds
12:00 AM 44.6 °F 42.2 °F 41.0 °F 87% 30.54 in 6.2 mi West 4.6 mph - N/A   Scattered Clouds
12:30 AM 44.6 °F 42.2 °F 41.0 °F 87% 30.54 in 6.2 mi WNW 4.6 mph - N/A   Scattered Clouds
1:00 AM 44.6 °F 42.2 °F 41.0 °F 87% 30.54 in 6.2 mi West 4.6 mph - N/A   Mostly Cloudy
1:30 AM 44.6 °F 42.2 °F 41.0 °F 87% 30.51 in 6.2 mi WNW 4.6 mph - N/A   Scattered Clouds
2:00 AM 44.6 °F 43.1 °F 41.0 °F 87% 30.51 in 6.2 mi West 3.5 mph - N/A   Mostly Cloudy
2:30 AM 44.6 °F 43.1 °F 41.0 °F 87% 30.51 in 6.2 mi SW 3.5 mph - N/A   Mostly Cloudy
3:00 AM 44.6 °F - 42.8 °F 93% 30.51 in 6.2 mi SW 2.3 mph - N/A   Mostly Cloudy
3:30 AM 46.4 °F - 42.8 °F 87% 30.51 in 6.2 mi West 2.3 mph - N/A   Mostly Cloudy
4:00 AM 44.6 °F - 42.8 °F 93% 30.51 in 6.2 mi SW 2.3 mph - N/A   Mostly Cloudy
4:30 AM 46.4 °F - 42.8 °F 87% 30.51 in 6.2 mi Variable 2.3 mph - N/A   Mostly Cloudy
5:00 AM 46.4 °F 45.2 °F 42.8 °F 87% 30.51 in 6.2 mi West 3.5 mph - N/A   Mostly Cloudy
5:30 AM 46.4 °F 45.2 °F 42.8 °F 87% 30.51 in 6.2 mi WNW 3.5 mph - N/A   Mostly Cloudy
6:00 AM 46 °F - 42 °F 83% 30.52 in 19 mi WSW 2.2 mph - -   Mostly Cloudy
6:00 AM 46.4 °F - 42.8 °F 87% 30.51 in 6.2 mi Variable 2.3 mph - N/A   Mostly Cloudy
6:30 AM 46.4 °F 44.3 °F 42.8 °F 87% 30.51 in 6.2 mi WSW 4.6 mph - N/A   Mostly Cloudy
7:00 AM 46.4 °F 44.3 °F 42.8 °F 87% 30.51 in 6.2 mi WSW 4.6 mph - N/A   Mostly Cloudy
7:30 AM 46.4 °F 44.3 °F 42.8 °F 87% 30.51 in 6.2 mi SW 4.6 mph - N/A   Mostly Cloudy
8:00 AM 46.4 °F 44.3 °F 42.8 °F 87% 30.51 in 6.2 mi SW 4.6 mph - N/A   Mostly Cloudy
8:30 AM 46.4 °F 44.3 °F 42.8 °F 87% 30.51 in 6.2 mi SSW 4.6 mph - N/A   Mostly Cloudy
9:00 AM 46.4 °F 44.3 °F 42.8 °F 87% 30.51 in 6.2 mi SSW 4.6 mph - N/A   Mostly Cloudy
9:30 AM 46.4 °F 42.9 °F 44.6 °F 93% 30.51 in 6.2 mi WSW 6.9 mph - N/A   Mostly Cloudy
10:00 AM 48.2 °F - 44.6 °F 87% 30.48 in 6.2 mi WSW 6.9 mph - N/A   Mostly Cloudy
10:30 AM 48.2 °F - 46.4 °F 93% 30.48 in 6.2 mi SW 5.8 mph - N/A   Overcast
11:00 AM 48.2 °F - 46.4 °F 93% 30.48 in 6.2 mi WSW 6.9 mph - N/A   Overcast
11:30 AM 48.2 °F - 44.6 °F 87% 30.48 in 6.2 mi SW 8.1 mph - N/A   Overcast
12:00 PM 49 °F - 47 °F 88% 30.50 in 16 mi SW 8.9 mph - -   Overcast
12:00 PM 48.2 °F - 46.4 °F 93% 30.48 in 6.2 mi SW 9.2 mph - N/A   Overcast
12:30 PM 50.0 °F - 46.4 °F 87% 30.48 in 6.2 mi WSW 9.2 mph - N/A   Mostly Cloudy
1:00 PM 50.0 °F - 46.4 °F 87% 30.45 in 6.2 mi WSW 9.2 mph - N/A   Overcast
1:30 PM 50.0 °F - 46.4 °F 87% 30.45 in 6.2 mi West 9.2 mph - N/A   Mostly Cloudy
2:00 PM 50.0 °F - 46.4 °F 87% 30.45 in 6.2 mi West 5.8 mph - N/A   Mostly Cloudy
2:30 PM 50.0 °F - 46.4 °F 87% 30.45 in 6.2 mi WNW 4.6 mph - N/A   Mostly Cloudy
3:00 PM 50.0 °F - 48.2 °F 94% 30.45 in 6.2 mi West 4.6 mph - N/A   Mostly Cloudy
3:30 PM 50.0 °F - 48.2 °F 94% 30.45 in 6.2 mi WSW 6.9 mph - N/A   Mostly Cloudy
4:00 PM 50.0 °F - 48.2 °F 94% 30.45 in 6.2 mi SW 5.8 mph - N/A   Mostly Cloudy
4:30 PM 50.0 °F - 48.2 °F 94% 30.45 in 6.2 mi SW 4.6 mph - N/A   Mostly Cloudy
5:00 PM 50.0 °F - 48.2 °F 94% 30.45 in 6.2 mi SW 4.6 mph - N/A   Mostly Cloudy
5:30 PM 48.2 °F - 48.2 °F 100% 30.45 in 6.2 mi SSW 5.8 mph - N/A   Mostly Cloudy
6:00 PM 48 °F - 47 °F 96% 30.47 in 19 mi SSW 4.5 mph - -   Mostly Cloudy
6:00 PM 48.2 °F - 46.4 °F 93% 30.45 in 6.2 mi SSW 4.6 mph - N/A   Mostly Cloudy
6:30 PM 48.2 °F - 46.4 °F 93% 30.45 in 6.2 mi SW 5.8 mph - N/A   Mostly Cloudy
7:00 PM 48.2 °F - 46.4 °F 93% 30.45 in 6.2 mi SW 6.9 mph - N/A   Mostly Cloudy
7:30 PM 48.2 °F - 48.2 °F 100% 30.45 in 6.2 mi WSW 5.8 mph - N/A   Mostly Cloudy
8:00 PM 48.2 °F - 46.4 °F 93% 30.45 in 6.2 mi WSW 6.9 mph - N/A   Mostly Cloudy
8:30 PM 48.2 °F - 46.4 °F 93% 30.42 in 6.2 mi SW 5.8 mph - N/A   Mostly Cloudy
9:00 PM 48.2 °F - 46.4 °F 93% 30.42 in 6.2 mi West 4.6 mph - N/A   Mostly Cloudy
9:30 PM 48.2 °F - 46.4 °F 93% 30.42 in 6.2 mi WNW 4.6 mph - N/A   Partly Cloudy
10:00 PM 48.2 °F - 46.4 °F 93% 30.42 in 6.2 mi WNW 3.5 mph - N/A   Scattered Clouds
10:30 PM 48.2 °F - 46.4 °F 93% 30.42 in 6.2 mi WNW 3.5 mph - N/A   Scattered Clouds
11:00 PM 48.2 °F - 46.4 °F 93% 30.42 in 6.2 mi WSW 3.5 mph - N/A   Scattered Clouds
11:30 PM 48.2 °F - 46.4 °F 93% 30.39 in 6.2 mi WNW 5.8 mph - N/A   Scattered Clouds